Dewpoint
71 72 74 74 74 74 74 73 73 73 73 73 74 74 73 74 74 74 74 75 76 76 75 75 75 76 74 75 75 75 75 75 75 75 75 73 73 73 73 73 73 67 72
71 72 74 75 74 74 74 75 74 74 74 73 74 74 74 74 74 74 75 74 75 75 74 74 76 75 75 76 76 75 76 75 75 75 73 74 75 75 73 73 74 73 74
70 72 72 75 74 74 74 74 74 73 73 73 74 74 74 74 74 74 74 74 74 75 74 74 74 76 76 76 75 75 75 75 75 74 71 68 70 74 74 75 75 73 73
71 72 71 75 75 74 74 74 74 74 74 74 74 74 74 74 74 74 74 74 74 74 74 75 74 73 74 74 74 75 75 74 74 73 71 69 66 72 72 72 73 74 73
72 72 73 74 75 74 74 74 74 74 74 74 74 74 74 74 73 73 73 73 74 74 73 74 74 74 74 74 74 74 74 74 73 71 72 72 69 73 73 73 73 73 73
72 72 74 74 74 74 74 74 74 74 74 74 74 74 74 73 74 74 74 74 73 73 73 74 73 74 74 74 74 74 72 72 71 71 72 72 70 72 72 72 71 72 73
71 72 72 74 75 74 74 74 74 74 74 74 74 74 74 73 73 73 73 74 74 74 74 73 73 73 73 74 74 71 72 71 71 71 72 72 71 74 72 73 71 71 71
69 72 72 74 74 74 72 74 74 74 74 74 74 74 73 73 73 73 73 72 73 74 74 73 73 73 74 74 74 72 71 71 69 70 70 70 74 73 72 74 71 70 70
70 72 73 72 74 73 72 73 73 74 74 74 73 73 72 72 71 71 72 72 73 73 74 73 73 72 73 74 74 73 74 73 68 69 67 70 75 73 72 73 73 72 72
70 71 72 72 72 70 71 74 73 73 73 72 72 72 72 72 72 72 73 74 72 72 73 73 73 73 73 73 74 74 74 71 66 68 70 71 75 73 73 72 72 72 73
70 71 71 72 73 73 72 72 73 73 73 73 73 72 73 74 71 70 71 72 72 72 72 73 72 73 73 73 73 74 70 67 66 68 68 74 74 73 72 73 73 72 72
67 69 68 70 71 72 70 73 73 72 73 73 74 75 73 74 74 70 71 72 72 72 72 72 72 73 72 69 69 69 68 68 66 67 68 74 73 72 71 71 70 68 68
67 67 68 69 71 70 71 73 72 73 73 71 74 75 74 74 74 71 73 72 71 72 68 69 69 68 70 68 68 69 69 68 66 66 70 73 73 71 71 69 68 67 65
67 67 67 69 70 70 69 71 71 72 72 69 72 75 74 72 71 71 71 73 72 71 72 72 69 71 69 70 70 69 67 67 66 66 69 73 72 71 69 68 67 65 64
65 66 67 69 71 70 71 71 72 72 69 71 73 74 72 71 69 68 70 70 71 71 70 70 70 69 70 70 70 70 68 67 66 66 68 73 73 71 69 67 66 65 63
64 64 64 67 70 70 71 73 73 72 73 72 73 72 72 71 72 67 69 70 70 69 69 69 70 71 71 70 70 70 70 70 69 68 67 69 73 71 69 67 66 64 63
63 63 66 68 70 71 72 73 73 73 72 70 72 72 72 71 72 71 68 69 70 71 72 72 73 72 71 70 71 70 70 71 70 69 67 69 71 73 71 69 67 66 64
64 66 68 66 68 70 72 73 72 73 73 70 71 72 73 72 73 72 69 69 71 71 71 70 71 71 70 70 70 70 70 71 70 70 68 68 69 68 70 71 70 69 67
67 68 68 69 69 71 73 72 73 74 72 70 71 72 74 73 73 71 69 70 74 71 71 71 71 71 70 69 69 70 71 70 69 67 69 69 70 70 69 71 72 72 69
66 68 69 69 71 73 72 73 73 72 72 73 72 73 75 74 75 73 70 72 73 71 72 72 73 72 71 70 66 66 69 69 69 69 68 68 69 70 70 71 69 68 72
66 67 69 70 73 72 71 72 73 69 70 72 73 74 74 75 75 74 70 71 72 72 71 73 72 72 70 71 68 67 67 68 68 67 68 68 69 70 71 71 71 69 68
65 67 69 71 73 72 71 73 73 72 72 72 74 74 74 73 73 72 73 72 72 70 72 72 71 66 68 70 67 67 63 64 65 64 67 68 69 69 69 71 72 72 71
65 67 68 71 73 73 73 72 73 73 72 71 72 72 72 74 74 73 71 71 72 71 68 71 70 69 66 66 69 67 63 60 62 65 64 64 67 66 68 69 71 72 71
63 66 68 71 73 72 73 73 74 75 69 69 72 72 72 75 75 74 71 72 73 69 71 68 67 68 67 64 63 63 66 66 58 52 60 60 62 63 66 66 65 65 68
62 64 67 71 72 73 73 74 72 72 71 70 71 73 75 76 74 71 72 73 73 69 71 70 70 69 65 61 61 62 64 60 63 56 50 52 54 57 58 59 60 60 63
62 64 66 71 73 72 72 73 75 74 73 71 71 71 71 73 73 76 75 76 75 72 70 69 70 69 69 67 64 64 60 58 57 58 55 55 56 58 58 60 61 62 63
Lifted_Index
-6 -6 -6 -6 -7 -7 -7 -7 -7 -6 -6 -6 -6 -6 -5 -5 -6 -6 -6 -6 -6 -6 -6 -6 -6 -6 -6 -6 -6 -6 -6 -7 -7 -6 -6 -5 -5 -4 -4 -4 -4 -4 -4
-6 -6 -6 -6 -7 -7 -7 -7 -7 -6 -6 -6 -6 -6 -5 -5 -6 -6 -6 -6 -6 -6 -6 -6 -6 -6 -6 -6 -6 -6 -7 -7 -7 -6 -5 -5 -5 -5 -4 -4 -4 -4 -4
-6 -6 -6 -6 -6 -6 -6 -7 -6 -6 -6 -6 -6 -5 -5 -5 -5 -6 -5 -5 -6 -6 -6 -6 -6 -6 -6 -6 -6 -6 -6 -6 -6 -5 -4 -4 -4 -4 -4 -4 -4 -4 -4
-6 -6 -6 -6 -6 -6 -6 -6 -6 -6 -6 -5 -5 -5 -5 -5 -5 -5 -5 -5 -5 -5 -6 -6 -6 -5 -6 -6 -6 -6 -5 -5 -5 -4 -4 -3 -3 -3 -3 -3 -4 -4 -4
-6 -6 -6 -6 -6 -6 -6 -6 -6 -6 -5 -5 -5 -5 -5 -5 -5 -5 -5 -5 -5 -5 -5 -5 -5 -5 -5 -5 -5 -5 -4 -4 -3 -3 -3 -3 -3 -3 -3 -3 -3 -4 -4
-5 -5 -6 -6 -6 -6 -6 -6 -6 -5 -5 -5 -5 -4 -4 -4 -4 -5 -5 -5 -5 -5 -5 -5 -5 -5 -5 -5 -5 -4 -3 -3 -3 -3 -3 -3 -3 -3 -3 -3 -3 -3 -3
-5 -5 -5 -6 -6 -6 -6 -6 -5 -5 -5 -5 -4 -4 -4 -4 -4 -4 -5 -5 -5 -5 -5 -5 -4 -4 -5 -5 -4 -3 -2 -2 -2 -3 -3 -3 -3 -3 -3 -3 -2 -2 -2
-4 -5 -5 -6 -6 -6 -5 -5 -5 -5 -4 -4 -4 -4 -3 -3 -4 -4 -4 -4 -4 -5 -5 -4 -4 -4 -4 -4 -4 -3 -2 -2 -2 -2 -2 -3 -3 -3 -3 -3 -2 -2 -2
-4 -4 -5 -5 -5 -5 -5 -5 -5 -5 -4 -4 -4 -3 -3 -3 -3 -4 -4 -4 -4 -4 -4 -4 -3 -3 -3 -4 -3 -3 -3 -2 -2 -2 -2 -3 -3 -3 -3 -3 -3 -3 -3
-4 -4 -4 -5 -5 -5 -5 -5 -5 -5 -4 -4 -3 -3 -3 -3 -3 -3 -4 -4 -3 -3 -3 -3 -3 -3 -3 -3 -3 -3 -3 -2 -1 -2 -2 -3 -3 -3 -3 -3 -3 -3 -3
-3 -3 -4 -4 -5 -5 -5 -5 -5 -5 -4 -4 -4 -4 -4 -4 -4 -4 -3 -3 -3 -3 -3 -3 -3 -3 -3 -3 -3 -3 -2 -1 -1 -1 -2 -3 -4 -3 -3 -3 -3 -2 -2
-2 -3 -3 -3 -4 -4 -4 -5 -5 -5 -4 -4 -4 -4 -4 -4 -4 -4 -4 -3 -3 -3 -3 -3 -3 -3 -3 -3 -2 -2 -2 -2 -1 -1 -2 -3 -3 -3 -2 -2 -1 -1 -0
-2 -2 -2 -3 -3 -4 -4 -4 -5 -5 -4 -4 -4 -4 -4 -4 -4 -4 -4 -4 -4 -3 -3 -3 -3 -3 -2 -2 -2 -2 -2 -2 -1 -1 -2 -3 -3 -2 -2 -1 -0 0 1
-1 -1 -2 -2 -2 -3 -3 -3 -4 -4 -3 -3 -4 -4 -4 -4 -3 -3 -3 -4 -3 -3 -3 -3 -2 -2 -2 -2 -2 -2 -2 -2 -1 -1 -2 -3 -3 -3 -2 -1 -0 1 2
-0 -0 -1 -2 -2 -2 -2 -3 -4 -4 -3 -3 -4 -4 -4 -3 -2 -2 -2 -3 -3 -3 -2 -2 -2 -2 -3 -3 -3 -3 -3 -2 -1 -1 -2 -3 -4 -3 -2 -1 -0 1 2
1 0 -1 -1 -2 -2 -3 -3 -4 -4 -4 -3 -3 -3 -3 -3 -2 -1 -2 -2 -2 -2 -2 -2 -3 -3 -3 -3 -3 -4 -4 -3 -2 -2 -2 -3 -4 -4 -3 -2 -1 0 1
1 0 -0 -1 -2 -2 -3 -4 -4 -4 -4 -3 -3 -3 -3 -2 -2 -2 -2 -2 -2 -2 -3 -3 -3 -4 -4 -4 -4 -4 -4 -4 -3 -3 -2 -3 -4 -4 -3 -2 -2 -1 -0
0 -0 -1 -1 -2 -2 -3 -4 -4 -4 -4 -3 -3 -3 -3 -3 -3 -3 -2 -2 -3 -3 -3 -3 -4 -4 -4 -4 -4 -4 -4 -4 -3 -3 -3 -3 -4 -4 -4 -3 -3 -2 -1
-0 -1 -1 -1 -2 -2 -3 -4 -4 -4 -4 -3 -3 -4 -4 -4 -4 -3 -3 -3 -4 -4 -4 -4 -4 -4 -4 -4 -4 -4 -4 -4 -4 -4 -4 -4 -4 -4 -4 -4 -3 -3 -3
-1 -1 -1 -2 -2 -3 -3 -4 -4 -4 -4 -4 -4 -5 -5 -5 -5 -4 -3 -4 -4 -4 -4 -4 -5 -5 -5 -5 -4 -4 -4 -4 -4 -4 -4 -4 -5 -5 -5 -4 -4 -4 -3
-1 -1 -1 -2 -3 -3 -3 -4 -4 -4 -4 -4 -5 -5 -5 -5 -5 -4 -4 -4 -4 -4 -4 -4 -4 -4 -4 -4 -4 -4 -4 -4 -4 -5 -5 -5 -5 -5 -5 -5 -5 -4 -4
-1 -1 -1 -2 -3 -3 -3 -4 -4 -4 -4 -5 -5 -5 -5 -5 -5 -4 -4 -4 -4 -4 -4 -4 -3 -3 -3 -4 -4 -4 -4 -4 -4 -4 -4 -4 -4 -5 -5 -5 -5 -5 -5
-0 -1 -1 -2 -3 -3 -3 -4 -4 -4 -4 -5 -5 -5 -5 -5 -5 -4 -3 -3 -3 -3 -3 -3 -2 -2 -3 -3 -3 -4 -4 -4 -3 -3 -2 -2 -3 -3 -4 -4 -4 -4 -4
0 -0 -1 -2 -3 -3 -3 -4 -4 -4 -4 -4 -4 -5 -5 -5 -5 -3 -2 -2 -2 -2 -2 -2 -2 -2 -2 -2 -2 -3 -3 -2 -2 -1 -1 -0 -1 -1 -2 -2 -2 -2 -2
0 -0 -1 -2 -3 -3 -3 -3 -4 -4 -4 -4 -4 -4 -5 -5 -4 -4 -3 -3 -2 -1 -1 -1 -2 -2 -2 -2 -1 -1 -1 -1 -0 0 1 1 0 -0 -1 -1 -1 -1 -1
1 0 -1 -2 -3 -3 -3 -3 -4 -5 -5 -4 -4 -4 -4 -5 -4 -4 -4 -4 -3 -2 -1 -1 -2 -2 -1 -1 -1 -1 -0 -0 0 1 1 1 0 -0 -0 -1 -1 -2 -2